Regional Weather Roundup
Issued by NWS

Home | Current Version | Previous Version | Graphics & Text | Print | Product List | Glossary On
Versions: 1 2 3 4 5 6 7 8 9 10 11 12 13 14 15 16 17 18 19 20 21 22 23 24 25 26 27
000
ASUS45 KCYS 200010
RWRWY

WYOMING REGIONAL WEATHER ROUNDUP
NATIONAL WEATHER SERVICE CHEYENNE WY
500 PM MST THU JAN 19 2017

NOTE:  "FAIR" INDICATES FEW OR NO CLOUDS BELOW 12,000 FEET
WITH NO SIGNIFICANT WEATHER AND/OR OBSTRUCTIONS TO VISIBILITY.

WYZ001-200100-
YELLOWSTONE NATIONAL PARK

CITY           SKY/WX    TMP DP  RH WIND       PRES   REMARKS
LK YELLOWSTONE   N/A     24  21  88 VRB3      29.63R
6HR MIN TEMP:  24; 6HR MAX TEMP:  27; 6HR PCP:  0.04;

W YELLOWSTONE  NOT AVBL

$$
WYZ002>013-054>058-071-098>099-200100-
NORTHERN WYOMING

CITY           SKY/WX    TMP DP  RH WIND       PRES   REMARKS
JACKSON        FLURRIES  25  23  93 CALM      29.64R
CODY           FAIR      26  19  74 N5        29.51R WCI  20
GREYBULL       CLOUDY    22  16  78 NW7       29.52S WCI  13
6HR MIN TEMP:  13; 6HR MAX TEMP:  27;

WORLAND        FAIR      28  23  81 CALM      29.51R
6HR MIN TEMP:  17; 6HR MAX TEMP:  31; 6HR PCP: TRACE;

SHERIDAN       FAIR      28  19  69 SW6       29.50R WCI  22
6HR MIN TEMP:  27; 6HR MAX TEMP:  42;

BUFFALO        FAIR      39  23  52 NW9       29.50R WCI  33
6HR MIN TEMP:  39; 6HR MAX TEMP:  49;

GILLETTE       FAIR      40  26  57 W17       29.47R WCI  31
6HR MIN TEMP:  39; 6HR MAX TEMP:  47;

HULETT         FAIR      41  27  56 SW8       29.49R
NEWCASTLE      FAIR      37  25  60 NE3       29.51S

$$
WYZ014>020-022>026-101>103-200100-
CENTRAL WYOMING

CITY           SKY/WX    TMP DP  RH WIND       PRES   REMARKS
BIG PINEY      LGT SNOW  14  11  87 CALM      29.66F FOG
6HR MIN TEMP:   7; 6HR MAX TEMP:  15; 6HR PCP: TRACE;

PINEDALE       LGT SNOW  19  14  79 CALM      29.66F
DUBOIS         NOT AVBL
LANDER         FAIR      22  15  75 SE6       29.54S WCI  14
6HR MIN TEMP:  17; 6HR MAX TEMP:  25;

RIVERTON       FAIR      18  12  77 SW5       29.56R WCI  11
                                      6HR PCP: TRACE;

CASPER         FAIR      35  23  61 SW26G38   29.57R WCI  22
6HR MIN TEMP:  34; 6HR MAX TEMP:  41;

DOUGLAS        FAIR      39  22  50 W14       29.54R WCI  31
6HR MIN TEMP:  39; 6HR MAX TEMP:  53;


$$
WYZ021-027>030-104>119-200100-
SOUTHERN WYOMING

CITY           SKY/WX    TMP DP  RH WIND       PRES   REMARKS
EVANSTON       SNOW      28  25  88 SW12      29.67S VSB 1/2 WCI  18
6HR MIN TEMP:  26; 6HR MAX TEMP:  29; 6HR PCP: TRACE;

ROCK SPRINGS   CLOUDY    15  12  88 CALM      29.67R
6HR MIN TEMP:   7; 6HR MAX TEMP:  19; 6HR PCP: TRACE;

RAWLINS        NOT AVBL
LARAMIE        FAIR      24  18  77 NE7       29.59R WCI  16
6HR MIN TEMP:  24; 6HR MAX TEMP:  32;

CHEYENNE       FAIR      43  16  33 W7        29.53S
6HR MIN TEMP:  43; 6HR MAX TEMP:  56;

TORRINGTON     FAIR      46  21  37 W10       29.49S
6HR MIN TEMP:  45; 6HR MAX TEMP:  58;


$$




USA.gov is the U.S. government's official web portal to all federal, state and local government web resources and services.